| time (UTC) | temp C | wind direction | speed KPH | gust KPH | rain 1hr cm | rain 24hr cm | rain mn cm | humidity % | barometer mb |
| 20260506115019 | 6 | 0.0 | 1.6 | 0.00 | 1.04 | 0.00 | 94 | 1010.0 | |
| 20260506114039 | 6 | 0.0 | 0.0 | 0.00 | 1.04 | 0.00 | 95 | 1009.8 | |
| 20260506113020 | 6 | 0.0 | 0.0 | 0.00 | 1.04 | 0.00 | 95 | 1009.3 | |
| 20260506112020 | 6 | 0.0 | 0.0 | 0.00 | 1.04 | 0.00 | 95 | 1009.3 | |
| 20260506111038 | 6 | 0.0 | 0.0 | 0.00 | 1.04 | 0.00 | 95 | 1008.9 | |
| 20260506110018 | 6 | 0.0 | 0.0 | 0.00 | 1.04 | 0.00 | 95 | 1009.1 | |
| 20260506105020 | 6 | 0.0 | 0.0 | 0.00 | 1.04 | 0.00 | 95 | 1009.2 | |
| 20260506104018 | 6 | 0.0 | 0.0 | 0.00 | 1.04 | 0.00 | 95 | 1009.4 | |
| 20260506103039 | 6 | 0.0 | 0.0 | 0.00 | 1.04 | 0.00 | 95 | 1009.1 | |
| 20260506102020 | 6 | 0.0 | 0.0 | 0.00 | 1.04 | 0.00 | 95 | 1008.8 | |
| 20260506101020 | 6 | 0.0 | 0.0 | 0.00 | 1.04 | 0.00 | 95 | 1008.5 | |
| 20260506100020 | 6 | 0.0 | 0.0 | 0.00 | 1.04 | 0.00 | 95 | 1008.4 | |
| 20260506095018 | 6 | 0.0 | 0.0 | 0.00 | 1.04 | 0.00 | 95 | 1008.1 | |
| 20260506094020 | 6 | 0.0 | 0.0 | 0.00 | 1.04 | 0.00 | 95 | 1008.2 | |
| 20260506093019 | 6 | 0.0 | 0.0 | 0.00 | 1.04 | 0.00 | 95 | 1008.3 | |
| 20260506092020 | 6 | 0.0 | 0.0 | 0.00 | 1.09 | 0.00 | 95 | 1008.4 | |
| 20260506091018 | 6 | 0.0 | 0.0 | 0.00 | 1.14 | 0.00 | 95 | 1008.6 | |
| 20260506090020 | 6 | 0.0 | 0.0 | 0.00 | 1.14 | 0.00 | 95 | 1008.8 | |
| 20260506085020 | 6 | 0.0 | 0.0 | 0.00 | 1.24 | 0.00 | 95 | 1007.6 | |
| 20260506084018 | 6 | 0.0 | 0.0 | 0.00 | 1.60 | 0.00 | 94 | 1008.1 | |
| 20260506083018 | 6 | 0.0 | 0.0 | 0.00 | 1.91 | 0.00 | 94 | 1008.3 | |
| 20260506082021 | 6 | 0.0 | 0.0 | 0.00 | 1.98 | 0.00 | 94 | 1008.5 | |
| 20260506081018 | 6 | 0.0 | 0.0 | 0.00 | 1.98 | 0.00 | 94 | 1008.5 | |
| 20260506073041 | 6 | 0.0 | 0.0 | 0.00 | 2.84 | 0.00 | 94 | 1007.9 | |
| 20260506072020 | 6 | 0.0 | 0.0 | 0.00 | 3.40 | 0.00 | 93 | 1008.0 | |
| 20260506071058 | 6 | 0.0 | 0.0 | 0.00 | 3.40 | 0.00 | 94 | 1007.9 | |
| 20260506062019 | 7 | 0.0 | 0.0 | 0.00 | 3.48 | 0.00 | 96 | 1008.8 | |
| 20260506061021 | 7 | 0.0 | 0.0 | 0.00 | 3.58 | 0.00 | 96 | 1008.6 | |
| 20260506051040 | 7 | 0.0 | 0.0 | 0.00 | 4.19 | 0.00 | 96 | 1008.7 | |
| 20260506045020 | 7 | 0.0 | 0.0 | 0.00 | 4.98 | 0.00 | 95 | 1008.8 | |
| 20260506044020 | 6 | 0.0 | 0.0 | 0.00 | 5.41 | 0.00 | 95 | 1008.5 | |
| 20260506043020 | 6 | 0.0 | 0.0 | 0.00 | 5.56 | 0.00 | 95 | 1008.2 | |
| 20260506042040 | 6 | 0.0 | 0.0 | 0.00 | 6.50 | 0.00 | 95 | 1008.2 | |
| 20260506041020 | 6 | 0.0 | 0.0 | 0.00 | 7.34 | 0.00 | 94 | 1008.3 | |
| 20260506040021 | 6 | 0.0 | 0.0 | 0.00 | 7.90 | 7.90 | 94 | 1008.5 | |
| 20260506035018 | 6 | 0.0 | 0.0 | 0.00 | 8.28 | 7.90 | 94 | 1008.6 | |
| 20260506034018 | 6 | 0.0 | 0.0 | 0.00 | 8.56 | 7.90 | 94 | 1008.7 | |
| 20260506033018 | 6 | 0.0 | 0.0 | 0.00 | 8.64 | 7.90 | 94 | 1008.6 | |
| 20260506032018 | 6 | 0.0 | 0.0 | 0.00 | 9.12 | 7.90 | 94 | 1008.5 | |
| 20260506031021 | 6 | 0.0 | 0.0 | 0.00 | 10.06 | 7.90 | 95 | 1008.5 | |
| 20260506030019 | 6 | 0.0 | 0.0 | 0.00 | 10.54 | 7.90 | 95 | 1008.5 | |
| 20260506025018 | 7 | 0.0 | 0.0 | 0.00 | 11.94 | 7.90 | 96 | 1008.6 | |
| 20260506024018 | 7 | 0.0 | 0.0 | 0.00 | 12.57 | 7.90 | 96 | 1008.6 |